Sigfox identifier Datetime Temperature Humidity SNR
003937AC 2018-10-09 08:33:58 21.1 39 17.5
003937AC 2018-10-09 07:27:43 21 38 19.7
003937AC 2018-10-09 06:21:26 21.1 38 19.7
003937AC 2018-10-09 05:15:08 21 38 19.7
003937AC 2018-10-09 01:56:19 21 37 19.5
003937AC 2018-10-09 00:50:06 21 37 19.4
003937AC 2018-10-08 23:43:49 21.1 36 19.4
003937AC 2018-10-08 22:37:32 21.1 36 19.2
003937AC 2018-10-08 21:31:14 21.1 36 19
003937AC 2018-10-08 20:25:02 21.1 36 18.7
003937AC 2018-10-08 19:18:51 21.2 35 18.7
003937AC 2018-10-08 18:12:39 21.3 35 18.7
003937AC 2018-10-08 17:06:21 21.1 35 18.7
003937AC 2018-10-08 16:00:05 21.1 34 18.7
003937AC 2018-10-08 14:53:47 21 34 18.6
003937AC 2018-10-08 13:47:34 21 33 18.5
003937AC 2018-10-08 12:41:20 20.9 33 18.6
003937AC 2018-10-08 11:35:02 20.8 33 18.6
003937AC 2018-10-08 09:22:34 20.6 34 18.6
003937AC 2018-10-08 08:16:19 20.6 34 18.6
003937AC 2018-10-08 07:10:08 20.6 34 18.7
003937AC 2018-10-08 06:03:53 20.6 35 18.6
003937AC 2018-10-08 04:57:36 20.6 35 18.4
003937AC 2018-10-08 03:51:20 20.6 35 18.5
003937AC 2018-10-08 02:45:04 20.6 36 14.9
003937AC 2018-10-08 01:38:44 20.6 36 14.9
003937AC 2018-10-08 00:32:27 20.6 36 14.9
003937AC 2018-10-07 23:26:12 20.7 36 14.9
003937AC 2018-10-07 22:19:54 20.8 37 14.6
003937AC 2018-10-07 21:13:41 20.8 37 14.5
003937AC 2018-10-07 20:07:23 20.8 37 14.4
003937AC 2018-10-07 19:01:09 20.8 37 14.5
003937AC 2018-10-07 17:54:49 20.8 37 14.6
003937AC 2018-10-07 16:48:34 20.8 37 14.6
003937AC 2018-10-07 15:42:17 20.8 37 14.6
003937AC 2018-10-07 14:36:01 20.9 37 14.3
003937AC 2018-10-07 13:29:46 20.9 37 14.7
003937AC 2018-10-07 12:23:36 20.8 37 14.4
003937AC 2018-10-07 11:17:20 20.8 37 13.9
003937AC 2018-10-07 10:11:02 20.8 38 13.8
003937AC 2018-10-07 09:04:44 20.9 38 13.8
003937AC 2018-10-07 07:58:26 20.8 38 13.5
003937AC 2018-10-07 06:52:11 20.8 38 13.6
003937AC 2018-10-07 05:45:53 20.8 38 13.5
003937AC 2018-10-07 04:39:35 20.9 38 13.4
003937AC 2018-10-07 03:33:21 20.8 38 13.4
003937AC 2018-10-07 02:27:01 20.9 38 13.3
003937AC 2018-10-07 01:20:44 21 38 13.5
003937AC 2018-10-07 00:14:27 21 38 13.6
003937AC 2018-10-06 23:08:14 21 38 13.6
003937AC 2018-10-06 22:01:57 21 38 13.8
003937AC 2018-10-06 20:55:43 21 38 13.8
003937AC 2018-10-06 19:49:28 21 38 13.8
003937AC 2018-10-06 18:43:13 21 38 13.8
003937AC 2018-10-06 17:36:57 21.1 39 14.5
003937AC 2018-10-06 16:30:42 21.1 39 14.4
003937AC 2018-10-06 15:24:26 21 39 14
003937AC 2018-10-06 14:18:13 21 39 14
003937AC 2018-10-06 13:12:03 21 39 13.8
003937AC 2018-10-06 12:05:45 21 39 13.8
003937AC 2018-10-06 10:59:29 21 39 14.5
003937AC 2018-10-06 09:53:12 21 39 15
003937AC 2018-10-06 08:46:52 21.1 39 15.2
003937AC 2018-10-06 07:40:35 21 40 15.3
003937AC 2018-10-06 06:34:15 21 40 15.5
003937AC 2018-10-06 05:27:56 21.1 40 15.5
003937AC 2018-10-06 04:21:39 21.2 40 15.5
003937AC 2018-10-06 03:15:20 21.3 41 15.7
003937AC 2018-10-06 02:09:03 21.3 41 15.7
003937AC 2018-10-06 01:02:44 21.3 41 15.7
003937AC 2018-10-05 23:56:25 21.3 41 15.8
003937AC 2018-10-05 22:50:04 21.4 41 15.8
003937AC 2018-10-05 21:43:44 21.4 42 16.4
003937AC 2018-10-05 20:37:20 21.5 42 16.4
003937AC 2018-10-05 19:30:55 21.5 42 17
003937AC 2018-10-05 18:24:30 21.6 42 17.8
003937AC 2018-10-05 16:11:41 21.7 41 17.8
003937AC 2018-10-05 15:05:13 21.6 41 18.1
003937AC 2018-10-05 13:58:48 21.7 40 18.5
003937AC 2018-10-05 12:52:26 21.5 40 18.4
003937AC 2018-10-05 11:45:58 21.5 41 18.7
003937AC 2018-10-05 10:39:34 21.3 35 19
003937AC 2018-10-05 09:33:15 21.1 34 19.2
003937AC 2018-10-05 08:26:58 20.8 32 19.7
003937AC 2018-10-05 07:20:38 20.9 29 20.1
003937AC 2018-10-05 06:14:18 20.8 29 20.2
003937AC 2018-10-05 05:07:56 20.9 28 20.3
003937AC 2018-10-05 04:01:40 20.8 28 20.5
003937AC 2018-10-05 02:55:14 20.8 28 20.7
003937AC 2018-10-05 01:48:55 20.8 29 20.7
003937AC 2018-10-05 00:42:35 21 29 20.9
003937AC 2018-10-04 23:36:17 21 29 21.1
003937AC 2018-10-04 22:29:58 21.1 29 21.3
003937AC 2018-10-04 21:23:40 21.2 28 21.4
003937AC 2018-10-04 20:17:24 21.2 28 21.5
003937AC 2018-10-04 19:11:12 21.1 28 22.6
003937AC 2018-10-04 18:04:56 21.1 28 22.6
003937AC 2018-10-04 14:46:03 21 29 22.4
003937AC 2018-10-04 13:39:46 20.9 29 22.4
003937AC 2018-10-04 12:33:31 20.8 30 22.2
003937AC 2018-10-04 11:27:11 20.6 31 21.9
003937AC 2018-10-04 10:20:53 20.6 31 21.9
003937AC 2018-10-04 09:14:37 20.4 32 21.8
003937AC 2018-10-04 08:08:18 20.3 33 21.7
003937AC 2018-10-04 07:01:58 20.4 35 21.7
003937AC 2018-10-04 05:55:37 20.4 36 21.5
003937AC 2018-10-04 04:49:18 20.4 36 21.5
003937AC 2018-10-04 03:43:01 20.5 37 21.3
003937AC 2018-10-04 02:36:41 20.5 38 21
003937AC 2018-10-04 01:30:23 20.5 38 20.7
003937AC 2018-10-04 00:24:04 20.6 39 20.5
003937AC 2018-10-03 23:17:42 20.6 39 20.2
003937AC 2018-10-03 22:11:19 20.6 39 19.9
003937AC 2018-10-03 21:04:59 20.6 40 20
003937AC 2018-10-03 19:58:36 20.7 40 20.1
003937AC 2018-10-03 18:52:17 20.6 40 19.8
003937AC 2018-10-03 17:45:58 20.7 41 19.5
003937AC 2018-10-03 16:39:36 20.8 42 19.2
003937AC 2018-10-03 15:33:17 20.8 41 19.2
003937AC 2018-10-03 14:26:54 20.8 43 18.9
003937AC 2018-10-03 13:20:37 20.6 42 15.9
003937AC 2018-10-03 12:14:16 20.6 42 15.9
003937AC 2018-10-03 11:07:59 20.5 42 15.9
003937AC 2018-10-03 10:01:43 20.4 42 16
003937AC 2018-10-03 08:55:24 20.3 41 16
003937AC 2018-10-03 07:49:03 20.4 42 16.1
003937AC 2018-10-03 06:42:42 20.4 42 15.9
003937AC 2018-10-03 05:36:25 20.4 42 15.8
003937AC 2018-10-03 04:30:06 20.4 42 15.6
003937AC 2018-10-03 03:23:44 20.5 42 15.4
003937AC 2018-10-03 02:17:28 20.5 42 15.4
003937AC 2018-10-03 01:11:12 20.6 42 14.8
003937AC 2018-10-03 00:04:53 20.6 42 18.4
003937AC 2018-10-02 22:58:32 20.6 42 18.3
003937AC 2018-10-02 21:52:13 20.6 42 18.5
003937AC 2018-10-02 20:45:53 20.7 42 18.5
003937AC 2018-10-02 19:39:36 20.8 42 18.7
003937AC 2018-10-02 18:33:12 20.8 42 18.8
003937AC 2018-10-02 17:26:53 20.8 42 18.5
003937AC 2018-10-02 16:20:38 20.8 42 18.4
003937AC 2018-10-02 15:14:16 20.8 41 18.6
003937AC 2018-10-02 14:07:59 20.8 41 18.8
003937AC 2018-10-02 13:01:42 20.6 38 18.8
003937AC 2018-10-02 10:49:06 20.6 43 19
003937AC 2018-10-02 09:42:45 20.4 43 19.2
003937AC 2018-10-02 08:36:26 20.3 42 19.4
003937AC 2018-10-02 07:30:09 20.4 42 19.6
003937AC 2018-10-02 06:23:52 20.4 43 19.8
003937AC 2018-10-02 05:17:36 20.4 43 20.1
003937AC 2018-10-02 04:11:22 20.4 44 20.4
003937AC 2018-10-02 03:05:01 20.4 44 20.7
003937AC 2018-10-02 01:58:41 20.4 44 21.1
003937AC 2018-10-02 00:52:20 20.5 44 21.6
003937AC 2018-10-01 23:46:01 20.4 44 22.2
003937AC 2018-10-01 22:39:38 20.5 44 22.8
003937AC 2018-10-01 21:33:12 20.5 44 23.6
003937AC 2018-10-01 20:26:46 20.4 44 24.5
003937AC 2018-10-01 19:20:24 20.2 44 16.5
003937AC 2018-10-01 18:14:04 20 45 17.7
003937AC 2018-10-01 17:07:45 19.3 48 16.6
003937AC 2018-10-01 16:01:15 16.8 63 0